Regional Weather Roundup
Issued by NWS

Home | Current Version | Previous Version | Text Only | Print | Product List | Glossary On
Versions: 1 2 3 4 5 6 7 8 9 10 11 12 13 14 15 16 17 18 19 20 21 22 23 24 25 26 27 28 29 30 31 32 33 34 35 36 37 38 39 40 41 42 43 44 45 46 47 48 49 50
000
ASUS44 KEWX 272011
RWRTX
SOUTH TEXAS REGIONAL WEATHER ROUNDUP
NATIONAL WEATHER SERVICE AUSTIN/SAN ANTONIO TX
300 PM CDT WED MAY 27 2015

NOTE: "FAIR" INDICATED FEW OR NO CLOUDS BELOW 12,000 FEET WITH NO
SIGNIFICANT WEATHER AND/OR OBSTRUCTIONS TO VISIBILITY.

* - THESE STATIONS ARE NOT NWS OR FAA STATIONS...AND ARE NOT SUBJECT
    TO NWS AND FAA QUALITY CONTROL.

TXZ171-172-183>190-272100-
TEXAS HILL COUNTRY AND EDWARDS PLATEAU

CITY           SKY/WX    TMP DP  RH WIND       PRES   REMARKS
JUNCTION       MOSUNNY   88  69  53 S16       30.03F HX  92
*LLANO         PTSUNNY   81  72  74 S7        30.08F
BURNET         PTSUNNY   82  71  69 SE12      30.07F
*HORSESHOE BAY PTSUNNY   77  72  85 SE5       30.05F
*KERRVILLE     CLOUDY    82  71  67 S15       30.07F
*FREDERICKSBRG PTSUNNY   84  67  57 S13G18    30.06F
*ROCKSPRINGS   MOSUNNY   84  72  65 SE15G25   30.09F HAZE
*BOERNE STAGE    N/A     82  68  61 S12G21    30.07F
*CASTROVILLE   MOSUNNY   89  66  45 SE14G22   30.04F HX  92
HONDO          MOSUNNY   87  70  56 SE14G24   30.05F HX  92
*UVALDE        MOSUNNY   85  71  62 SE10G18   30.03F HX  91
DEL RIO        PTSUNNY   88  74  63 SE14G22   29.97F HX  96
LAUGHLIN AFB   PTSUNNY   87  80  78 SE20      29.98F HX 103
CARRIZO SPRGS  PTSUNNY   88  72  58 SE10G18   29.98F HX  94
$$

TXZ173-191>194-202-209-217>225-228-272100-
CENTRAL AND SOUTH CENTRAL TEXAS

CITY           SKY/WX    TMP DP  RH WIND       PRES   REMARKS
GEORGETOWN     PTSUNNY   82  73  74 S13       30.05F
AUSTIN/BERGSTM CLOUDY    81  76  84 E7        30.03F
AUSTIN/MABRY   CLOUDY    78  73  84 VRB3      30.06F
*AUSTIN/EXEC   CLOUDY    81  73  78 SE6       30.05F
*LAGO VISTA    CLOUDY    77  72  85 SE3       30.08F
SAN MARCOS     PTSUNNY   88  72  58 SE13      30.03F HX  94
NEW BRAUNFELS  PTSUNNY   91  71  51 S20       30.02F HX  97
RANDOLPH AFB   MOSUNNY   89  71  54 S16       30.02F HX  94
PT SAN ANTONIO MOSUNNY   87  71  58 S14       30.01F HX  93
SAN ANTONIO    MOSUNNY   88  70  55 SE17G25   30.03F HX  93
STINSON FIELD  PTSUNNY   88  71  57 SE16      30.01F HX  94
*PLEASANTON    MOSUNNY   87  70  55 SE15G21   30.02F HX  92
*LA GRANGE     SUNNY     87  74  65 S12G20    30.02F HX  96
*GIDDINGS      MOSUNNY   83  71  68 SE7       30.09S
*GONZALES      PTSUNNY   88  76  67 SE13G20   30.03S HX  98
$$

TXZ163>164-176>182-195>201-210>213-226-227-235-272100-
SOUTHEAST TEXAS

CITY           SKY/WX    TMP DP  RH WIND       PRES   REMARKS
COLLEGE STN    SUNNY     86  71  60 S13       30.05F HX  91
*BRYAN         SUNNY     86  72  62 S9G18     30.07S HX  92
*CALDWELL      MOSUNNY   84  75  74 SE12      30.08F HX  92
*CROCKETT      NOT AVBL
*BRENHAM       MOSUNNY   87  72  62 SE12      30.06F HX  93
HUNTSVILLE     MOSUNNY   86  70  58 CALM      30.07F HX  90
CONROE         PTSUNNY   82  69  64 VRB3      30.08F
HOUSTON BUSH   MOSUNNY   83  71  67 VRB3      30.06F
HOUSTON HOBBY  MOSUNNY   85  72  65 S9        30.05F HX  91
*HOUSTON SW AP MOSUNNY   86  74  65 SE14      30.06F HX  94
PEARLAND       SUNNY     86  70  58 SE10G16   30.08F HX  90
HOUSTON HOOKS  SUNNY     83  71  67 SE9       30.07F
ELLINGTON FLD  MOSUNNY   81  77  89 SE8       30.06F
SUGAR LAND     MOSUNNY   86  71  60 S13G22    30.05F HX  91
*HOUSTON EXEC  MOSUNNY   84  72  65 S13       30.07F
*CLEVELAND MUN SUNNY     82  72  71 CALM      30.07F
*WHARTON       MOSUNNY   86  73  64 S16       30.06S HX  93
*COLUMBUS      PTSUNNY   84  74  70 S12G18    30.05F HX  91
$$

TXZ214>216-236>238-272100-
THE UPPER TEXAS COAST

CITY           SKY/WX    TMP DP  RH WIND       PRES   REMARKS
*ORANGE        MOSUNNY   83  67  58 CALM      30.07S
PORT ARTHUR    MOSUNNY   86  67  52 S5        30.05F
GALVESTON      SUNNY     81  74  79 SE12      30.07F
ANGLETON       SUNNY     83  71  67 S16       30.06F
*BAY CITY      SUNNY     86  74  66 SE12G18   30.05F HX  94
PALACIOS       NOT AVBL
$$

TXZ229>234-239>247-272100-
TEXAS COASTAL BEND AND RIO GRANDE PLAINS

CITY           SKY/WX    TMP DP  RH WIND       PRES   REMARKS
VICTORIA       MOSUNNY   85  75  72 SE15G25   30.05S HX  93
*BEEVILLE      MOSUNNY   88  75  64 SE14G21   30.02F HX  97
ROCKPORT       PTSUNNY   84  76  76 E18       30.03F HX  93
*PORT ARANSAS  MOSUNNY   86  77  74 SE13G18   30.03F HX  96
*PORT LAVACA   MOSUNNY   83  75  76 E20G25    30.05F HX  90
*INGLESIDE     MOSUNNY   89  76  65 SE16G22   30.02F HX  99
CORPUS CHRISTI MOSUNNY   87  74  64 SE18G24   30.02F HX  95
CORPUS NAS     PTSUNNY   86  76  71 SE16      30.03F HX  96
*ROBSTOWN      MOSUNNY   88  75  65 SE17G24   30.02F HX  97
ALICE          MOSUNNY   91  73  55 SE18      30.00F HX  99
KINGSVILLE NAS PTSUNNY   88  77  69 E17G24    30.01F HX 100
COTULLA        MOSUNNY   89  69  51 SE16      29.99F HX  93
*FAITH RANCH     N/A     90  68  48 SE15      29.99F HX  93
LAREDO         MOSUNNY   91  69  48 SE14      29.99F HX  95
$$

TXZ248>255-272100-
DEEP SOUTH TEXAS

CITY           SKY/WX    TMP DP  RH WIND       PRES   REMARKS
BROWNSVILLE    MOSUNNY   89  75  63 SE17      29.99F HX  99
PORT ISABEL    MOSUNNY   86  76  71 E18       29.99F HX  96
*SOUTH PADRE     N/A    -24 -24 100 S16       30.00F WCI -51
HARLINGEN      MOSUNNY   90  76  63 SE18      29.97F HX 101
*HEBBRONVILLE    N/A     89  69  51 SE14      30.00F HX  94
MCALLEN        MOSUNNY   93  73  52 SE14      29.96F HX 102
*WESLACO       MOSUNNY   91  72  52 SE12G20   29.96F HX  98
FALFURRIAS     MOSUNNY   89  75  62 E13G20    29.98F HX  99
EDINBURG       MOSUNNY   92  71  49 SE17      29.97F HX  99
*ZAPATA        PTSUNNY   91  69  48 E14       29.96F HX  95
$$

TXZ213>215-236>238-242>244-246-247-251-254-255-272100-
CMAN STATIONS

STATION/POSITION TIME  TEMP    WIND        PRES    WAVE
                       AIR SEA DIR/SP/G            HT/PER
                 (UTC) (F)     (DEG/KT/KT) (MB)    (FT/S)
$$

GMZ080-GMZ150>470-272100-
OFFSHORE BUOY REPORTS

STATION/POSITION TIME  TEMP    WIND        PRES    WAVE
                       AIR SEA DIR/SP/G            HT/PER
                 (UTC) (F)     (DEG/KT/KT) (MB)    (FT/S)
$$


USA.gov is the U.S. government's official web portal to all federal, state and local government web resources and services.